Weather History for Decatur, AL

Change the Weather History Date:

Friday, November 8, 2013

  Actual Average Record
Temperature  
Mean Temperature 45 °F -  
Max Temperature 60 °F 63 °F 82 °F (2005)
Min Temperature 30 °F 38 °F 20 °F (1951)
Degree Days  
Heating Degree Days 20    
Moisture  
Dew Point 31 °F    
Average Humidity 67    
Maximum Humidity 92    
Minimum Humidity 27    
Precipitation  
Precipitation 0.00 in - - ()
Sea Level Pressure  
Sea Level Pressure 30.33 in    
Wind  
Wind Speed 4 mph (NE)    
Max Wind Speed 9 mph    
Max Gust Speed 17 mph    
Visibility 10 miles    
Events      
Averages and records for this station are not official NWS values.
T = Trace of Precipitation, MM = Missing Value Source: NWS Daily Summary

Daily Weather History Graph

Daily Weather History Graph

Search for Another Location

Airport:

Trip Planner

Search our weather history database for the weather conditions in past years. The results will help you decide how hot, cold, wet, or windy it might be!

Date:

Astronomy

Nov. 08, 2013 Rise Set
Actual Time 6:15 AM CST 4:47 PM CST
Civil Twilight 5:48 AM CST 5:14 PM CST
Nautical Twilight 5:18 AM CST 5:44 PM CST
Astronomical Twilight 4:48 AM CST 6:13 PM CST
Moon 11:10 AM CST (11/8) 10:07 PM CST (11/8)
Length of Visible Light 11h 25m
Length of Day
10h 32m
Waxing Crescent, 33% of the Moon is Illuminated
Nov 8
Waxing Crescent
Nov 9
First Quarter
Nov 17
Full
Nov 25
Last Quarter
Dec 2
New

Hourly Weather History & Observations

Time (CST) Temp. Dew Point Humidity Pressure Visibility Wind Dir Wind Speed Gust Speed Precip Events Conditions
12:53 AM 34.0 °F 30.0 °F 85% 30.34 in 10.0 mi North - - N/A   Clear
1:53 AM 33.1 °F 30.0 °F 89% 30.33 in 10.0 mi North - - N/A   Clear
2:53 AM 32.0 °F 28.9 °F 88% 30.34 in 10.0 mi North - - N/A   Clear
3:53 AM 30.9 °F 28.9 °F 92% 30.35 in 10.0 mi North - - N/A   Clear
4:53 AM 30.0 °F 28.0 °F 92% 30.36 in 10.0 mi North - - N/A   Clear
5:53 AM 30.0 °F 27.0 °F 88% 30.38 in 10.0 mi North - - N/A   Clear
6:53 AM 32.0 °F 28.9 °F 88% 30.40 in 10.0 mi North - - N/A   Clear
7:53 AM 39.0 °F 32.0 °F 76% 30.42 in 10.0 mi North - - N/A   Clear
8:53 AM 46.0 °F 34.0 °F 63% 30.41 in 10.0 mi North - - N/A   Clear
9:53 AM 50.0 °F 32.0 °F 50% 30.41 in 10.0 mi North - - N/A   Clear
10:53 AM 54.0 °F 32.0 °F 43% 30.40 in 10.0 mi NE 8.1 mph 17.3 mph N/A   Clear
11:53 AM 55.9 °F 30.9 °F 39% 30.36 in 10.0 mi NE 6.9 mph - N/A   Clear
12:53 PM 57.9 °F 28.9 °F 33% 30.33 in 10.0 mi North 9.2 mph - N/A   Clear
1:53 PM 59.0 °F 28.0 °F 31% 30.31 in 10.0 mi ENE 5.8 mph - N/A   Clear
2:53 PM 60.1 °F 26.1 °F 27% 30.30 in 10.0 mi Variable 3.5 mph - N/A   Clear
3:53 PM 59.0 °F 26.1 °F 28% 30.29 in 10.0 mi NE 3.5 mph - N/A   Clear
4:53 PM 50.0 °F 32.0 °F 50% 30.29 in 10.0 mi Calm Calm - N/A   Clear
5:53 PM 43.0 °F 34.0 °F 71% 30.29 in 10.0 mi Calm Calm - N/A   Clear
6:53 PM 42.1 °F 32.0 °F 67% 30.29 in 10.0 mi Calm Calm - N/A   Clear
7:53 PM 36.0 °F 30.9 °F 82% 30.29 in 10.0 mi Calm Calm - N/A   Clear
8:53 PM 39.9 °F 33.1 °F 77% 30.28 in 10.0 mi Calm Calm - N/A   Clear
9:53 PM 39.0 °F 34.0 °F 82% 30.27 in 10.0 mi Calm Calm - N/A   Clear
10:53 PM 39.9 °F 35.1 °F 83% 30.26 in 10.0 mi Calm Calm - N/A   Clear
11:53 PM 39.9 °F 34.0 °F 79% 30.27 in 10.0 mi Calm Calm - N/A   Clear